Wind_Speed
67 67 66 66 66 65 65 65 65 65 64 64 63 63 61 60 57 55 52 51 50 47 48 48 47 44 43 42 38 37 39 38 38 37 37 43 35 33 28 31 36 32 37 38 27
70 70 69 69 69 69 68 68 69 68 67 66 66 66 66 65 62 59 57 56 54 52 52 52 51 50 47 46 45 43 40 37 37 42 41 45 40 38 34 30 31 35 33 39 37
73 72 71 71 71 72 72 71 71 71 70 70 69 69 70 69 68 64 62 60 58 58 57 56 53 53 53 52 51 46 45 41 38 42 48 46 44 42 38 34 32 36 36 34 40
74 73 73 72 71 72 72 72 72 72 72 72 72 72 72 72 71 69 66 65 63 63 61 59 56 56 56 56 54 51 49 45 37 42 46 46 47 49 43 39 38 37 39 33 34
73 74 73 73 73 73 74 73 72 72 72 72 72 73 74 75 71 71 67 66 66 65 63 61 61 59 59 57 58 57 53 50 43 42 45 45 50 47 47 42 40 40 39 36 35
74 74 73 72 72 72 73 74 74 75 74 73 73 74 76 76 73 75 72 70 69 68 67 65 64 63 63 61 61 59 59 50 47 44 44 45 46 51 47 44 41 41 40 40 36
76 74 74 73 72 71 70 70 73 74 75 74 74 75 77 75 75 75 74 71 72 72 71 68 69 67 66 64 66 62 61 55 54 51 51 48 48 47 48 45 43 42 46 41 40
75 74 74 74 74 72 72 71 71 72 73 74 75 75 78 78 77 76 76 73 74 72 73 72 68 68 69 68 65 64 65 62 55 53 52 51 58 46 52 49 45 44 43 50 45
72 72 73 73 73 72 71 71 72 74 75 76 76 77 80 78 77 74 75 73 74 71 73 70 65 59 62 66 68 69 67 65 56 53 55 59 62 48 54 50 51 48 46 50 50
67 65 66 68 70 69 66 65 66 64 74 78 77 80 81 78 78 78 78 75 70 65 62 63 63 65 64 64 70 67 66 65 61 51 53 55 59 48 51 57 52 53 52 48 53
70 66 64 63 63 64 63 64 66 66 67 71 68 77 72 74 75 76 75 73 68 61 65 65 64 66 65 61 57 57 56 57 58 50 56 59 53 47 47 56 54 51 54 51 50
75 71 68 65 64 63 63 65 65 61 61 60 59 59 67 72 70 70 72 72 69 66 64 64 64 63 60 58 59 54 50 52 55 54 55 57 56 51 47 51 57 54 54 54 47
75 72 69 67 66 68 64 61 58 59 61 61 58 55 54 60 66 65 66 66 67 68 66 67 65 54 63 57 58 60 54 40 44 53 56 58 63 52 50 51 54 55 53 54 50
78 74 71 68 72 67 66 59 59 57 62 63 60 58 56 52 53 57 59 61 61 59 61 64 59 67 61 63 55 63 66 52 60 64 66 58 70 59 53 46 50 48 51 51 48
80 77 75 74 69 69 62 59 62 58 61 63 59 57 54 54 49 50 53 56 55 59 58 54 51 63 68 61 62 52 66 71 67 66 65 62 65 66 58 54 43 43 46 50 48
80 83 80 78 73 67 66 63 59 61 67 64 58 56 56 55 54 52 47 53 52 54 56 52 55 58 56 55 66 60 58 62 64 67 69 63 65 71 60 60 53 48 37 42 46
66 74 79 81 73 74 71 67 69 77 67 56 59 54 52 56 57 53 48 47 52 55 58 54 53 53 53 56 57 66 65 63 62 65 66 62 69 73 57 59 55 51 49 40 37
52 58 66 73 78 76 78 75 75 69 69 61 35 62 58 52 58 54 49 48 46 48 50 52 56 57 55 57 56 58 59 63 64 61 63 64 67 65 56 57 48 40 41 42 40
54 55 54 51 68 74 79 83 67 81 71 67 58 59 63 59 53 55 50 47 44 45 48 49 51 49 53 52 56 57 59 57 59 60 60 61 59 59 56 55 53 49 43 44 44
48 54 53 55 55 57 69 79 75 66 79 74 68 52 46 43 46 50 50 44 43 42 42 43 45 47 44 50 53 54 53 56 57 59 59 59 62 57 54 52 54 55 47 43 32
47 44 46 56 59 66 72 75 80 67 72 61 66 40 55 40 42 36 41 42 40 39 41 41 46 46 46 48 47 51 53 55 56 38 51 56 51 48 51 51 49 44 45 42 34
46 48 46 52 58 60 67 87 59 43 59 73 70 64 53 40 34 34 35 39 41 39 37 37 42 44 41 42 47 48 49 51 54 60 60 58 52 48 57 56 55 57 51 54 52
50 45 44 51 56 56 60 87 68 58 59 72 72 64 48 48 37 32 26 31 33 34 35 36 38 37 40 41 44 47 45 47 48 51 59 61 60 38 46 51 64 63 61 60 56
37 41 43 50 51 51 62 88 65 55 47 59 74 72 69 63 45 37 31 29 30 28 33 36 37 38 38 35 38 44 45 47 47 49 52 56 58 60 62 60 65 66 63 67 64
35 44 42 47 51 51 67 73 54 55 81 70 58 53 52 54 48 43 35 33 31 29 31 34 34 34 33 37 41 44 46 43 50 52 53 53 55 51 54 67 73 71 69 68 64
33 40 34 37 47 47 54 60 54 48 72 66 64 51 48 52 40 32 32 27 28 29 32 35 34 33 33 38 41 45 46 48 49 45 49 54 57 46 51 57 60 61 60 66 66
31 37 33 39 46 50 43 44 52 53 56 46 48 42 35 43 37 31 33 32 31 30 30 32 31 32 36 36 39 43 38 41 44 48 50 53 47 48 53 49 54 60 61 60 61
Wind_Direction
240 239 239 240 241 239 240 241 241 241 241 242 242 244 244 244 244 245 247 249 251 254 258 260 262 263 264 267 267 267 267 266 269 269 268 272 274 274 280 271 262 268 254 249 257
241 240 239 238 239 240 240 240 241 241 242 242 243 243 244 244 244 244 245 247 249 250 252 255 258 261 266 268 268 268 271 273 265 266 267 270 268 272 276 276 269 265 267 253 249
241 240 240 239 239 239 240 240 240 242 242 243 243 243 244 244 243 242 244 245 247 248 249 251 254 257 261 265 268 268 271 269 263 263 264 267 271 270 270 274 273 265 255 270 250
242 242 240 240 239 240 240 240 240 241 242 242 242 243 243 242 243 243 243 243 245 247 248 250 252 255 259 262 267 266 267 267 263 260 264 267 265 268 270 271 273 273 268 259 257
243 242 241 241 239 240 241 241 242 241 241 243 243 243 243 243 244 244 244 245 245 248 249 251 252 252 253 257 260 263 264 266 265 264 266 260 267 266 267 271 273 275 269 259 253
243 243 242 242 240 240 240 241 242 243 242 242 243 242 243 244 243 243 242 242 244 245 247 248 250 252 252 253 256 259 261 266 268 267 260 258 259 264 264 263 271 271 267 268 255
240 240 242 242 242 242 240 240 242 242 243 242 241 242 242 243 242 243 243 244 243 245 246 247 248 250 251 251 251 256 259 260 260 264 263 263 261 265 260 256 258 265 267 270 260
237 236 235 236 237 237 239 239 239 240 241 241 241 241 243 241 242 243 244 243 243 243 244 247 248 249 250 251 251 251 255 258 258 258 261 261 264 263 266 260 253 258 264 265 270
237 236 234 234 233 233 233 235 235 235 237 237 239 240 242 243 243 244 245 243 243 242 241 242 243 244 248 248 250 251 250 254 255 254 259 263 267 258 258 263 256 253 258 263 268
235 233 233 233 232 232 232 234 235 235 236 234 236 237 240 242 240 239 238 238 240 240 239 240 240 243 243 244 248 251 252 253 256 255 258 264 269 257 252 257 259 251 253 257 264
233 231 229 229 229 230 230 231 231 231 231 236 242 241 243 240 240 239 238 240 241 240 239 238 240 240 245 244 246 247 252 257 255 248 250 257 257 261 258 255 255 254 250 253 258
230 229 227 226 226 226 226 230 234 237 239 238 237 236 236 236 239 239 238 238 236 238 238 236 239 240 242 241 241 241 237 243 241 240 245 249 253 257 260 259 256 252 250 250 251
225 225 223 223 223 225 225 228 232 233 236 235 236 238 241 238 237 237 239 241 241 239 238 239 239 237 237 238 237 232 230 235 240 235 240 246 254 257 260 261 257 253 245 244 245
222 221 221 220 221 221 223 224 228 232 237 236 234 233 234 236 238 237 237 239 239 240 240 240 233 236 237 236 237 233 230 244 245 242 242 244 254 255 255 257 258 256 244 242 243
219 218 219 220 220 220 220 221 228 230 235 234 231 233 234 236 237 238 236 236 238 237 238 240 237 236 239 237 239 239 237 239 240 243 246 242 251 253 253 251 261 259 250 243 238
222 219 218 219 218 216 218 218 224 226 234 233 231 229 229 229 234 234 235 236 236 237 237 234 234 235 235 236 239 239 243 242 246 247 250 244 251 255 256 257 251 256 262 256 239
218 220 222 220 218 218 215 216 220 219 224 239 235 225 231 232 232 233 234 238 238 239 239 237 235 237 235 235 237 238 241 247 249 249 253 247 251 256 255 260 262 251 256 262 244
205 207 214 218 217 216 215 213 207 224 224 217 221 229 233 228 231 235 237 237 238 240 241 242 240 240 242 236 238 239 242 243 246 251 254 250 255 252 257 258 257 258 259 258 257
207 201 199 203 211 211 211 209 213 215 217 221 223 217 228 234 233 234 234 237 239 243 245 245 246 240 238 240 241 240 242 243 247 247 252 253 258 254 255 258 252 254 262 257 251
209 201 196 198 197 198 203 205 206 216 223 224 227 232 220 229 231 231 232 235 238 239 241 245 246 244 241 239 239 239 242 244 246 250 250 256 255 251 250 253 257 256 251 240 236
196 192 198 201 200 201 204 198 204 214 219 208 214 222 223 236 238 240 236 239 234 239 242 244 246 245 240 242 242 239 239 240 241 248 243 247 254 243 248 240 246 236 227 219 236
199 202 203 203 203 207 206 192 197 212 218 217 221 227 221 231 235 237 242 243 244 242 245 247 245 249 248 246 245 243 242 240 242 241 248 246 246 243 238 237 241 244 251 246 249
190 206 207 207 203 204 206 196 195 208 214 216 219 216 224 222 236 240 253 246 241 242 240 240 241 242 244 244 247 248 245 246 248 247 248 250 237 214 230 236 237 244 252 262 267
190 197 203 204 203 202 206 197 205 208 206 213 217 222 228 232 231 239 236 236 238 234 233 234 236 240 247 251 252 251 251 252 253 252 249 249 247 234 236 238 243 246 249 255 262
194 203 197 200 195 190 203 191 194 213 218 215 216 216 224 219 228 235 237 238 238 236 238 237 239 242 246 246 245 249 247 246 248 249 248 245 251 246 239 242 244 252 255 252 255
182 191 196 192 187 189 195 202 186 199 210 216 218 232 229 222 227 239 240 241 244 246 247 247 246 247 248 247 248 247 250 255 252 253 256 255 253 247 246 252 252 251 254 257 257
172 185 192 189 187 192 181 190 197 203 200 203 209 213 216 218 227 227 229 232 239 237 242 247 249 252 251 251 253 253 255 256 258 256 262 259 257 239 246 257 258 255 255 252 251
Height
5703 5709 5715 5720 5725 5732 5738 5744 5750 5756 5761 5766 5772 5776 5781 5786 5790 5797 5803 5807 5809 5815 5816 5818 5820 5822 5825 5830 5833 5837 5841 5846 5853 5852 5854 5852 5860 5861 5863 5865 5866 5866 5868 5870 5872
5688 5695 5701 5707 5713 5718 5725 5731 5737 5743 5749 5755 5759 5765 5771 5775 5781 5788 5795 5798 5802 5806 5809 5811 5814 5816 5819 5823 5826 5829 5835 5841 5846 5847 5848 5847 5855 5857 5860 5860 5863 5863 5863 5864 5868
5671 5679 5686 5693 5699 5705 5711 5718 5724 5730 5736 5741 5747 5753 5758 5763 5771 5781 5785 5791 5795 5796 5800 5804 5808 5811 5814 5815 5818 5824 5828 5832 5839 5841 5840 5844 5847 5850 5856 5857 5858 5857 5857 5860 5862
5655 5663 5671 5678 5685 5691 5696 5703 5710 5716 5722 5727 5733 5739 5744 5750 5760 5767 5774 5780 5784 5788 5794 5796 5800 5803 5807 5808 5812 5816 5818 5823 5831 5833 5834 5839 5840 5844 5849 5853 5852 5854 5851 5858 5854
5639 5646 5654 5662 5670 5677 5683 5689 5695 5702 5708 5713 5718 5724 5729 5737 5751 5757 5767 5772 5777 5780 5785 5788 5791 5793 5797 5801 5803 5807 5811 5815 5820 5824 5828 5832 5834 5837 5841 5846 5847 5849 5850 5851 5852
5620 5629 5637 5645 5654 5662 5669 5675 5680 5686 5693 5698 5703 5708 5715 5729 5735 5743 5753 5760 5764 5768 5772 5777 5779 5781 5786 5791 5793 5799 5801 5811 5813 5818 5818 5822 5827 5828 5836 5838 5841 5842 5846 5843 5847
5601 5610 5619 5628 5638 5646 5654 5661 5666 5672 5677 5683 5688 5693 5701 5720 5722 5730 5743 5748 5754 5757 5761 5765 5769 5770 5775 5780 5783 5791 5794 5801 5804 5807 5810 5811 5819 5825 5825 5828 5833 5834 5838 5840 5840
5583 5592 5602 5611 5620 5629 5638 5645 5651 5656 5661 5666 5672 5680 5690 5698 5710 5721 5732 5737 5740 5745 5750 5752 5756 5760 5765 5770 5773 5780 5784 5788 5798 5797 5801 5801 5808 5821 5816 5821 5824 5827 5830 5833 5835
5565 5576 5586 5595 5604 5613 5622 5629 5633 5639 5644 5650 5658 5665 5673 5688 5700 5712 5718 5725 5725 5729 5735 5740 5744 5749 5754 5759 5764 5769 5772 5774 5786 5788 5788 5789 5799 5810 5808 5811 5815 5819 5821 5825 5828
5549 5561 5571 5581 5590 5600 5609 5614 5619 5623 5627 5634 5643 5648 5661 5680 5683 5690 5697 5706 5708 5713 5721 5728 5732 5736 5744 5749 5752 5759 5762 5768 5777 5783 5776 5780 5787 5795 5800 5801 5806 5811 5813 5817 5820
5534 5546 5557 5567 5577 5586 5594 5597 5600 5606 5611 5624 5637 5648 5657 5667 5669 5679 5687 5695 5697 5702 5709 5717 5719 5726 5741 5743 5746 5749 5752 5756 5766 5770 5764 5769 5778 5783 5792 5793 5796 5800 5804 5808 5811
5518 5531 5542 5554 5564 5572 5578 5581 5593 5606 5611 5618 5622 5631 5635 5647 5655 5668 5673 5677 5682 5690 5698 5699 5704 5730 5724 5728 5734 5740 5745 5749 5754 5754 5753 5758 5767 5773 5782 5786 5787 5791 5796 5800 5803
5501 5515 5528 5540 5549 5554 5566 5576 5589 5593 5595 5604 5611 5624 5630 5638 5646 5656 5661 5667 5672 5679 5685 5688 5710 5712 5710 5718 5721 5730 5734 5738 5737 5738 5740 5745 5752 5765 5776 5775 5778 5781 5787 5789 5793
5483 5499 5513 5523 5528 5547 5557 5573 5578 5585 5583 5585 5599 5608 5617 5627 5633 5644 5650 5656 5659 5669 5676 5676 5699 5693 5697 5704 5712 5714 5729 5722 5725 5728 5730 5734 5732 5754 5763 5768 5771 5775 5776 5781 5785
5464 5481 5495 5505 5525 5533 5558 5567 5570 5575 5566 5576 5586 5598 5609 5619 5632 5633 5641 5642 5649 5660 5662 5672 5684 5682 5686 5701 5704 5711 5710 5711 5714 5717 5717 5728 5719 5748 5754 5765 5771 5766 5767 5769 5772
5449 5465 5478 5491 5507 5530 5541 5555 5563 5559 5550 5557 5576 5589 5599 5610 5616 5624 5630 5633 5644 5648 5652 5662 5669 5668 5679 5690 5689 5700 5699 5702 5704 5705 5698 5723 5717 5728 5748 5757 5761 5762 5760 5758 5762
5432 5448 5462 5476 5504 5513 5529 5540 5539 5533 5541 5551 5570 5582 5593 5600 5606 5615 5622 5627 5633 5638 5645 5658 5657 5664 5672 5678 5680 5687 5692 5692 5691 5692 5691 5721 5697 5710 5740 5742 5749 5752 5751 5751 5752
5423 5435 5448 5468 5480 5495 5511 5519 5519 5525 5537 5546 5561 5576 5582 5592 5600 5607 5614 5619 5626 5633 5638 5641 5647 5657 5667 5666 5675 5677 5681 5680 5680 5685 5694 5700 5685 5709 5731 5731 5738 5742 5741 5742 5743
5415 5426 5436 5451 5465 5479 5489 5493 5505 5520 5529 5546 5560 5564 5569 5582 5594 5598 5606 5614 5620 5626 5631 5633 5639 5646 5648 5659 5662 5668 5664 5677 5672 5678 5678 5678 5686 5706 5718 5723 5727 5728 5730 5732 5732
5409 5420 5432 5444 5455 5466 5474 5486 5503 5512 5528 5539 5548 5559 5567 5579 5585 5591 5597 5608 5613 5619 5624 5628 5631 5635 5643 5642 5647 5654 5663 5663 5665 5666 5666 5670 5680 5693 5707 5714 5715 5717 5718 5721 5722
5404 5413 5426 5436 5448 5456 5461 5475 5496 5508 5519 5530 5543 5555 5566 5575 5583 5588 5596 5602 5607 5612 5617 5621 5622 5627 5630 5633 5642 5645 5645 5651 5655 5654 5652 5659 5663 5692 5694 5700 5703 5703 5706 5710 5710
5401 5410 5422 5429 5437 5446 5456 5468 5486 5504 5512 5524 5540 5554 5563 5574 5577 5583 5590 5595 5600 5605 5611 5614 5615 5618 5625 5628 5629 5632 5637 5642 5639 5648 5649 5651 5653 5674 5678 5690 5694 5694 5695 5694 5695
5399 5409 5416 5423 5429 5440 5452 5467 5486 5501 5503 5516 5533 5545 5554 5563 5571 5578 5584 5589 5594 5599 5602 5605 5608 5611 5615 5621 5624 5625 5631 5631 5634 5638 5636 5639 5649 5663 5668 5674 5679 5680 5680 5677 5678
5394 5403 5410 5416 5429 5439 5449 5465 5483 5495 5500 5511 5527 5538 5548 5559 5569 5573 5580 5584 5587 5591 5592 5595 5599 5604 5609 5616 5615 5615 5621 5623 5624 5624 5630 5629 5641 5654 5659 5661 5662 5665 5663 5666 5674
5393 5401 5408 5414 5424 5438 5449 5465 5482 5484 5491 5508 5519 5533 5545 5552 5561 5568 5574 5577 5580 5584 5586 5589 5593 5597 5601 5602 5603 5605 5607 5611 5611 5616 5613 5625 5622 5639 5649 5646 5650 5649 5650 5658 5663
5391 5401 5409 5420 5431 5438 5452 5463 5473 5479 5498 5509 5520 5532 5539 5549 5560 5565 5568 5572 5574 5578 5579 5582 5585 5588 5591 5591 5593 5594 5599 5602 5605 5608 5606 5610 5610 5631 5635 5632 5628 5628 5636 5643 5643
5395 5404 5412 5420 5429 5440 5452 5465 5474 5485 5496 5509 5522 5527 5536 5545 5553 5555 5560 5563 5567 5570 5573 5574 5576 5579 5581 5582 5582 5585 5595 5593 5594 5596 5598 5597 5609 5617 5615 5610 5612 5624 5618 5616 5619